Location: Newark
(42.9277°N, 71.8621°W)
Time: 20:04:44
(UTC+00:00)

Transit 4A - Pass Details

Date: 15 May 2021
Orbit: 872 x 973 km, 66.8° (Epoch: 15 June)

Event Time Altitude Azimuth Distance (km) Brightness Sun altitude
Rises 01:06:57 0° 278° (W) 3,572 12.1 -10.6°
Reaches altitude 10° 01:11:26 10° 308° (NW) 2,605 11.8 -11.3°
Maximum altitude 01:13:41 12° 331° (NNW) 2,447 11.3 -11.6°
Drops below altitude 10° 01:15:55 10° 353° (N) 2,583 10.9 -11.9°
Sets 01:20:20 0° 24° (NNE) 3,503 11.2 -12.5°
